User: anonymous   Login
Location: NJAA Observatory
(40.6819°N, 74.8979°W)
Time: 18:55:24
(UTC-04:00)
Language:

Meteor 1-28 Rocket - Orbit

View from above orbital plane
View from above orbital plane
View from above satellite
View from above satellite

Ground track
Ground track

The orbit data is extracted from the following two-line orbital elements,

1 10114U 77057B   15108.52268152  .00003614  00000-0  19622-3 0  9996
2 10114 097.2351 319.3879 0014194 193.4811 166.6045 15.15047509 63758
Epoch (UTC): 18 April 2015 12:32:39
Eccentricity: 0.0014194
inclination: 97.2351°
perigee height: 511 km
apogee height: 530 km
right ascension of ascending node: 319.3879°
argument of perigee: 193.4811°
revolutions per day: 15.15047509
mean anomaly at epoch: 166.6045°
orbit number at epoch: 6375

The dashed part of the orbit path shows where the satellite is in the earth's shadow,  

DLR